#timestamp,LO_Frequency,Hit,StdDev 
1522692015.0,286047000.5,N
1522692015.9,286047000.5,N
1522692035.8,286047000.9,N
1522692055.6,286047000.9,N
1522692075.5,286047000.4,N
1522692095.3,286047002.4,N
1522692115.1,286047000.1,N
1522692135.9,286047001.4,N
1522692155.7,286046999.7,N
1522692175.5,286047000.1,N
1522692195.4,286046998.9,N
1522692215.2,286046998.7,N
1522692235.1,286046999.9,N
1522692236.0,286046999.9,N
1522692255.8,286046999.7,N
1522692275.6,286047001.4,N
1522692295.5,286047001.4,N
1522692315.3,286047003.6,Y
1522692335.1,286047001.6,P
1522692355.9,286047001.9,N
1522692375.7,286047001.9,N
1522692395.6,286047001.8,N
1522692415.4,286047002.0,Y
1522692435.2,286047001.6,P
1522692455.1,286047001.3,P
1522692456.0,286047001.3,P
1522692475.8,286047001.3,Y
1522692495.7,286047002.1,P
1522692515.5,286047001.5,P
1522692535.3,286047001.4,P
1522692555.2,286047002.4,Y
1522692575.9,286047000.7,P
1522692595.7,286047000.2,N
1522692615.6,286047000.3,N
1522692635.4,286047001.5,N
1522692655.3,286047003.8,Y
1522692675.1,286047002.0,P
1522692676.0,286047002.0,P
1522692695.8,286047001.4,N
1522692715.7,286047001.9,Y
1522692735.5,286046999.8,P
1522692755.3,286046999.8,N
1522692775.2,286047001.2,N
1522692795.0,286046996.9,Y
1522692795.9,286046996.9,P
1522692815.8,286046994.9,N
1522692835.6,286046997.2,N
1522692855.4,286046995.4,N
1522692875.3,286046995.1,N
1522692895.1,286046994.9,N
1522692915.8,286046997.7,N
1522692935.7,286046996.7,N
1522692955.5,286046996.9,N
1522692975.4,286046998.9,N
1522692995.2,286047001.2,N
1522693015.0,286047000.0,N
1522693015.9,286047000.0,N
1522693035.8,286047001.2,N
1522693055.6,286047000.0,N
1522693075.4,286047000.2,N
1522693095.3,286046998.6,N
1522693115.1,286046997.1,N
1522693135.9,286046998.7,N
1522693155.7,286047000.8,N
1522693175.5,286047001.0,N
1522693195.4,286046999.9,N
1522693215.2,286047002.4,N
1522693235.0,286047003.9,N
1522693235.9,286047003.9,N
1522693255.8,286047001.4,N
1522693275.6,286046999.8,N
1522693295.5,286047001.2,N
1522693315.3,286047002.8,N
1522693335.1,286047002.2,N
1522693355.9,286047011.9,Y
1522693375.7,286047003.2,P
1522693395.5,286047005.3,N
1522693415.4,286047005.6,N
1522693435.2,286047003.3,N
1522693455.1,286047004.9,N
1522693456.0,286047004.9,N
1522693475.8,286047002.9,N
1522693495.6,286047003.1,N
1522693515.5,286047005.6,Y
1522693535.3,286046998.2,P
1522693555.2,286046998.9,N
1522693575.9,286047001.0,N
1522693595.7,286046998.6,N
1522693615.6,286046998.7,N
1522693635.4,286046998.9,N
1522693655.2,286046999.6,N
1522693675.1,286046996.7,N
1522693676.0,286046996.7,N
1522693695.8,286046999.1,N
1522693715.7,286046997.6,N
1522693735.5,286046996.5,N
1522693755.3,286046996.8,N
1522693775.2,286046995.0,N
1522693795.0,286046997.4,N
1522693795.9,286046997.4,N
1522693815.7,286046996.9,N
1522693835.6,286046999.4,N
1522693855.4,286046998.6,N
1522693875.3,286046998.3,N
1522693895.1,286046999.3,N
1522693896.0,286046999.3,N
1522693915.8,286046997.8,N
1522693935.7,286046997.9,N
1522693955.5,286046993.7,Y
1522693975.3,286046999.4,P
1522693995.2,286046996.7,P
1522694015.0,286046995.2,P
1522694015.9,286046995.2,Y
1522694035.8,286046996.9,P
1522694055.6,286046999.2,P
1522694075.4,286046999.3,N
1522694095.3,286047000.3,N
1522694115.1,286046998.4,N
1522694135.8,286046998.7,N
1522694155.7,286047000.9,N
1522694175.5,286047000.8,N
1522694195.4,286047000.4,N
1522694215.2,286047000.3,N
1522694235.0,286047000.2,N
1522694235.9,286047000.2,N
1522694255.8,286047003.7,N
1522694275.6,286047002.7,N
1522694295.4,286047004.3,N
1522694315.3,286047001.5,N
1522694335.1,286047002.1,N
1522694355.9,286046999.7,N
1522694375.7,286046999.9,N
1522694395.5,286047000.8,N
1522694415.4,286047001.1,N
1522694435.2,286047000.9,N
1522694455.0,286047002.6,N
1522694455.9,286047002.6,N
1522694475.8,286046998.7,N
1522694495.6,286047002.8,N
1522694515.5,286047000.1,N
1522694535.3,286047001.0,N
1522694555.1,286046998.1,N
1522694575.9,286047000.6,N
1522694595.7,286046999.9,N
1522694615.5,286047002.2,N
1522694635.4,286047001.9,N
1522694655.2,286047003.7,N
1522694675.0,286047006.0,Y
1522694676.0,286047006.0,P
1522694695.8,286047002.0,N
1522694715.6,286047000.2,N
1522694735.5,286046999.7,N
1522694755.3,286047002.3,N
1522694775.1,286047001.8,N
1522694795.9,286047003.8,N
1522694815.7,286047005.5,N
1522694835.5,286047005.6,N
1522694855.4,286047003.1,N
1522694875.2,286047005.9,N
1522694895.1,286047003.5,N
1522694896.0,286047003.5,N
1522694915.8,286047001.3,N
1522694935.6,286047004.0,N
1522694955.5,286047003.4,N
1522694975.3,286047001.5,N
1522694995.1,286047001.5,N
1522695015.9,286047002.7,N
1522695035.7,286047003.8,N
1522695055.6,286047002.9,N
1522695075.4,286047005.3,Y
1522695095.2,286047002.4,P
1522695115.1,286046999.9,N
1522695116.0,286046999.9,N
1522695135.8,286046999.7,N
1522695155.6,286047000.6,N
1522695175.5,286046998.5,N
1522695195.3,286047001.1,N
1522695215.2,286047000.8,N
1522695235.9,286047000.1,N
1522695255.7,286047000.8,N
1522695275.6,286046998.5,N
1522695295.4,286047000.9,N
1522695315.2,286046998.4,N
1522695335.1,286047001.0,N
1522695336.0,286047001.0,N
1522695355.8,286047000.8,N
1522695375.7,286047000.6,N
1522695395.5,286047001.1,N
1522695415.3,286047000.6,N
1522695435.2,286046999.7,N
1522695455.0,286047000.5,N
1522695455.9,286047000.5,N
1522695475.7,286046997.1,N
1522695495.6,286046998.6,N
1522695515.4,286046999.4,N
1522695535.3,286046999.1,N
1522695555.1,286046999.0,N
1522695556.0,286046999.0,N
1522695575.8,286046998.1,N
1522695595.7,286046998.2,N
